CW1784 Weather Reports


time (UTC)temp
C
wind
direction
speed
KPH
gust
KPH
rain 1hr
cm
rain 24hr
cm
rain mn
cm
humidity
%
barometer
mb
20260507100035 16 113 3.2 9.7 0.00 0.00 0.00 70 1012.3
20260507095516 15 0 3.2 9.7 0.00 0.00 0.00 67 1012.4
20260507095015 15 0 0.0 11.3 0.00 0.00 0.00 69 1012.4
20260507094533 14 128 1.6 11.3 0.00 0.00 0.00 73 1012.4
20260507094016 13 131 3.2 11.3 0.00 0.00 0.00 76 1012.4
20260507093516 13 196 3.2 8.0 0.00 0.00 0.00 74 1012.4
20260507093037 13 163 1.6 11.3 0.00 0.00 0.00 76 1012.2
20260507092516 13 138 4.8 12.9 0.00 0.00 0.00 76 1012.2
20260507092016 12 134 4.8 19.3 0.00 0.00 0.00 75 1012.3
20260507091530 12 130 3.2 19.3 0.00 0.00 0.00 75 1012.2
20260507091016 12 103 9.7 14.5 0.00 0.00 0.00 76 1012.1
20260507090515 13 113 6.4 14.5 0.00 0.00 0.00 72 1012.1
20260507090032 13 88 4.8 12.9 0.00 0.00 0.00 71 1012.2
20260507085516 13 0 1.6 9.7 0.00 0.00 0.00 70 1012.2
20260507085017 13 0 1.6 9.7 0.00 0.00 0.00 71 1012.3
20260507084529 13 0 1.6 9.7 0.00 0.00 0.00 70 1012.3
20260507084022 13 80 3.2 8.0 0.00 0.00 0.00 73 1012.2
20260507083516 12 0 0.0 8.0 0.00 0.00 0.00 75 1012.2
20260507083038 12 0 1.6 8.0 0.00 0.00 0.00 75 1012.3
20260507082517 12 82 3.2 8.0 0.00 0.00 0.00 72 1012.3
20260507082016 12 0 3.2 9.7 0.00 0.00 0.00 72 1012.3
20260507081532 12 67 3.2 9.7 0.00 0.00 0.00 72 1012.3
20260507081016 12 57 1.6 8.0 0.00 0.00 0.00 73 1012.2
20260507080516 12 0 1.6 8.0 0.00 0.00 0.00 72 1012.2
20260507080037 12 53 3.2 11.3 0.00 0.00 0.00 72 1012.3
20260507075516 12 31 3.2 11.3 0.00 0.00 0.00 71 1012.2
20260507075016 12 57 3.2 11.3 0.00 0.00 0.00 72 1012.1
20260507074532 12 76 4.8 14.5 0.00 0.00 0.00 72 1012.2
20260507074015 12 0 1.6 14.5 0.00 0.00 0.00 72 1012.1
20260507073516 12 47 6.4 14.5 0.00 0.00 0.00 73 1012.1
20260507073032 12 93 4.8 12.9 0.00 0.00 0.00 73 1012.1
20260507072516 12 69 3.2 12.9 0.00 0.00 0.00 73 1012.2
20260507072015 12 52 4.8 14.5 0.00 0.00 0.00 72 1012.2
20260507071540 12 86 6.4 16.1 0.00 0.00 0.00 72 1012.2
20260507071022 12 39 6.4 16.1 0.00 0.00 0.00 72 1012.0
20260507070516 12 55 8.0 17.7 0.00 0.00 0.00 72 1011.9
20260507070034 12 65 6.4 17.7 0.00 0.00 0.00 74 1011.9
20260507065517 11 69 4.8 17.7 0.00 0.00 0.00 74 1011.9
20260507065015 11 52 6.4 17.7 0.00 0.00 0.00 74 1011.9
20260507064532 11 76 8.0 16.1 0.00 0.00 0.00 74 1011.7
20260507064018 11 45 4.8 14.5 0.00 0.00 0.00 74 1011.7
20260507063516 11 69 8.0 16.1 0.00 0.00 0.00 75 1011.7
20260507063032 11 51 8.0 17.7 0.00 0.00 0.00 74 1011.6
20260507062516 11 71 8.0 17.7 0.00 0.00 0.00 75 1011.6
20260507062017 11 90 8.0 19.3 0.00 0.00 0.00 75 1011.6
20260507061530 11 62 6.4 19.3 0.00 0.00 0.00 76 1011.5
20260507061017 10 88 6.4 19.3 0.00 0.00 0.00 76 1011.6
20260507060516 10 66 6.4 17.7 0.00 0.00 0.00 78 1011.4
20260507060030 10 71 4.8 17.7 0.00 0.00 0.00 78 1011.4
20260507055517 10 69 6.4 17.7 0.00 0.00 0.00 78 1011.4
20260507055015 10 94 4.8 16.1 0.00 0.00 0.00 79 1011.3
20260507054530 10 98 4.8 16.1 0.00 0.00 0.00 79 1011.3
20260507054016 10 65 4.8 16.1 0.00 0.00 0.00 79 1011.2
20260507053516 9 80 6.4 16.1 0.00 0.00 0.00 79 1011.1
20260507053032 9 85 6.4 16.1 0.00 0.00 0.00 79 1011.2
20260507052513 9 66 6.4 16.1 0.00 0.00 0.00 79 1011.1
20260507052016 9 76 6.4 16.1 0.00 0.00 0.00 79 1011.1
20260507051532 9 53 6.4 16.1 0.00 0.00 0.00 78 1011.2
20260507051013 10 64 3.2 16.1 0.00 0.00 0.00 78 1011.2
20260507050515 9 69 4.8 17.7 0.00 0.00 0.00 79 1011.2
20260507050030 9 36 6.4 17.7 0.00 0.00 0.00 79 1011.2
20260507045516 9 62 4.8 12.9 0.00 0.00 0.00 79 1011.3
20260507045018 9 73 3.2 16.1 0.00 0.00 0.00 79 1011.3
20260507044530 9 52 6.4 16.1 0.00 0.00 0.00 79 1011.3
20260507044016 9 58 4.8 14.5 0.00 0.00 0.00 79 1011.5
20260507043517 9 66 4.8 12.9 0.00 0.00 0.00 78 1011.3
20260507043036 9 58 4.8 12.9 0.00 0.00 0.00 78 1011.4
20260507042515 9 54 4.8 12.9 0.00 0.00 0.00 78 1011.3
20260507042016 9 68 4.8 12.9 0.00 0.00 0.00 78 1011.3
20260507041533 9 57 4.8 12.9 0.00 0.00 0.00 78 1011.5
20260507041016 9 71 4.8 12.9 0.00 0.00 0.00 78 1011.4
20260507040516 9 56 4.8 9.7 0.00 0.00 0.00 78 1011.4
20260507040032 10 61 1.6 12.9 0.00 0.00 0.00 77 1011.4
20260507035515 10 69 3.2 12.9 0.00 0.00 0.00 77 1011.5
20260507035013 10 56 1.6 9.7 0.00 0.00 0.00 77 1011.4
20260507034530 10 59 3.2 8.0 0.00 0.00 0.00 77 1011.3
20260507034013 10 41 4.8 9.7 0.00 0.00 0.00 77 1011.3
20260507033519 10 52 1.6 16.1 0.00 0.00 0.00 77 1011.3
20260507033035 10 64 3.2 16.1 0.00 0.00 0.00 76 1011.3
20260507032515 10 43 6.4 16.1 0.00 0.00 0.00 77 1011.2
20260507032017 10 62 3.2 9.7 0.00 0.00 0.00 77 1011.3
20260507031531 10 55 3.2 14.5 0.00 0.00 0.00 77 1011.3
20260507031015 10 61 4.8 14.5 0.00 0.00 0.00 77 1011.1
20260507030516 10 55 3.2 11.3 0.00 0.00 0.00 77 1011.4
20260507030033 10 49 3.2 11.3 0.00 0.00 0.00 77 1011.4
20260507025515 9 52 3.2 9.7 0.00 0.00 0.00 77 1011.3
20260507025016 9 59 3.2 16.1 0.00 0.00 0.00 77 1011.3
20260507024535 9 59 6.4 16.1 0.00 0.00 0.00 77 1011.3
20260507024015 9 63 3.2 9.7 0.00 0.00 0.00 77 1011.3
20260507023519 9 61 3.2 11.3 0.00 0.00 0.00 77 1011.4
20260507023031 9 32 3.2 11.3 0.00 0.00 0.00 77 1011.4
20260507022516 9 59 3.2 14.5 0.00 0.00 0.00 77 1011.3
20260507022016 9 65 3.2 14.5 0.00 0.00 0.00 77 1011.2
20260507021532 9 49 3.2 8.0 0.00 0.00 0.00 76 1011.2
20260507021017 9 58 1.6 11.3 0.00 0.00 0.00 76 1011.3
20260507020517 10 69 0.0 11.3 0.00 0.00 0.00 75 1011.3
20260507020034 10 63 4.8 11.3 0.00 0.00 0.00 74 1011.4
20260507015519 10 91 3.2 14.5 0.00 0.00 0.00 74 1011.3
20260507015017 10 24 3.2 14.5 0.00 0.00 0.00 73 1011.3
20260507014534 10 60 1.6 12.9 0.00 0.00 0.00 73 1011.3
20260507014017 10 67 4.8 12.9 0.00 0.00 0.00 72 1011.3
20260507013517 10 90 3.2 14.5 0.00 0.00 0.00 72 1011.2
20260507013036 10 92 3.2 19.3 0.00 0.00 0.00 72 1011.2
20260507012521 10 51 6.4 19.3 0.00 0.00 0.00 71 1011.3
20260507012013 10 87 9.7 19.3 0.00 0.00 0.00 71 1011.3
20260507011538 10 86 6.4 19.3 0.00 0.00 0.00 71 1011.3
20260507011015 11 90 6.4 22.5 0.00 0.00 0.00 70 1011.2
20260507010513 11 96 11.3 24.1 0.00 0.00 0.00 70 1011.3
20260507010030 11 66 11.3 24.1 0.00 0.00 0.00 69 1011.3
20260507005517 11 60 9.7 22.5 0.00 0.00 0.00 69 1011.4
20260507005017 11 85 9.7 24.1 0.00 0.00 0.00 69 1011.4
20260507004532 11 84 12.9 25.7 0.00 0.00 0.00 68 1011.4
20260507004017 11 133 12.9 27.4 0.00 0.00 0.00 68 1011.4
20260507003514 11 118 9.7 27.4 0.00 0.00 0.00 67 1011.5
20260507003031 11 85 14.5 25.7 0.00 0.00 0.00 67 1011.4
20260507002513 11 92 14.5 27.4 0.00 0.00 0.00 67 1011.3
20260507002016 11 92 12.9 27.4 0.00 0.00 0.00 67 1011.3
20260507001539 11 84 12.9 25.7 0.00 0.00 0.00 66 1011.4
20260507001016 11 84 12.9 29.0 0.00 0.00 0.00 66 1011.4
20260507000519 11 58 11.3 29.0 0.00 0.00 0.00 66 1011.2
20260507000030 11 66 11.3 24.1 0.00 0.00 0.00 65 1011.3
20260506235516 11 84 12.9 33.8 0.00 0.00 0.00 65 1011.4
20260506235012 11 107 12.9 33.8 0.00 0.00 0.00 65 1011.3
20260506234541 11 128 12.9 29.0 0.00 0.00 0.00 65 1011.4
20260506234013 11 75 14.5 27.4 0.00 0.00 0.00 65 1011.4
20260506233514 11 69 9.7 24.1 0.00 0.00 0.00 65 1011.3
20260506233033 11 67 12.9 25.7 0.00 0.00 0.00 65 1011.4
20260506232515 11 60 14.5 25.7 0.00 0.00 0.00 65 1011.3
20260506232015 11 74 11.3 25.7 0.00 0.00 0.00 64 1011.3
20260506231535 11 93 12.9 24.1 0.00 0.00 0.00 64 1011.3
20260506231015 11 60 11.3 25.7 0.00 0.00 0.00 63 1011.3
20260506230511 11 59 12.9 25.7 0.00 0.00 0.00 61 1011.3
20260506230029 12 61 12.9 25.7 0.00 0.00 0.00 61 1011.3
20260506225516 12 66 9.7 25.7 0.00 0.00 0.00 59 1011.3
20260506225013 12 76 9.7 22.5 0.00 0.00 0.00 59 1011.3
20260506224532 12 74 11.3 22.5 0.00 0.00 0.00 58 1011.2
20260506224015 12 78 11.3 22.5 0.00 0.00 0.00 58 1011.2
20260506223516 12 90 8.0 19.3 0.00 0.00 0.00 58 1011.3
20260506223031 12 57 8.0 19.3 0.00 0.00 0.00 57 1011.3
20260506222514 12 84 8.0 19.3 0.00 0.00 0.00 57 1011.2
20260506222015 12 101 6.4 17.7 0.00 0.00 0.00 56 1011.2
20260506221532 12 82 8.0 16.1 0.00 0.00 0.00 54 1011.2
20260506221016 12 88 8.0 17.7 0.00 0.00 0.00 53 1011.1
20260506220512 12 94 8.0 17.7 0.00 0.00 0.00 51 1011.2
20260506220032 12 83 4.8 12.9 0.00 0.00 0.00 49 1011.2
20260506215513 12 86 6.4 12.9 0.00 0.00 0.00 50 1011.2
20260506215012 12 113 1.6 4.8 0.00 0.00 0.00 50 1011.2
20260506214531 12 113 0.0 3.2 0.00 0.00 0.00 49 1011.2
20260506214013 12 0 0.0 9.7 0.00 0.00 0.00 49 1011.3
20260506213512 12 0 0.0 9.7 0.00 0.00 0.00 51 1011.2
20260506213030 12 113 1.6 8.0 0.00 0.00 0.00 50 1011.2
20260506212518 12 151 0.0 3.2 0.00 0.00 0.00 50 1011.3
20260506212014 12 0 0.0 3.2 0.00 0.00 0.00 50 1011.2
20260506211536 12 0 0.0 3.2 0.00 0.00 0.00 49 1011.3
20260506211014 12 0 0.0 3.2 0.00 0.00 0.00 50 1011.2
20260506210514 12 161 0.0 1.6 0.00 0.00 0.00 51 1011.2
20260506210031 12 0 0.0 1.6 0.00 0.00 0.00 52 1011.3
20260506205515 12 0 0.0 0.0 0.00 0.00 0.00 54 1011.2
20260506205013 12 0 0.0 0.0 0.00 0.00 0.00 54 1011.2
20260506204534 12 0 0.0 0.0 0.00 0.00 0.00 53 1011.2
20260506204018 12 0 0.0 0.0 0.00 0.00 0.00 54 1011.2
20260506203516 12 0 0.0 0.0 0.00 0.00 0.00 54 1011.2
20260506203048 12 0 0.0 0.0 0.00 0.00 0.00 53 1011.1
20260506202515 12 0 0.0 0.0 0.00 0.00 0.00 54 1011.2
20260506202015 12 0 0.0 0.0 0.00 0.00 0.00 56 1011.1
20260506201528 12 0 0.0 0.0 0.00 0.00 0.00 56 1011.1
20260506201012 12 0 0.0 0.0 0.00 0.00 0.00 55 1011.1
20260506200516 12 0 0.0 0.0 0.00 0.00 0.00 55 1011.0
20260506200043 12 0 0.0 0.0 0.00 0.00 0.00 54 1011.0
20260506195516 12 0 0.0 0.0 0.00 0.00 0.00 55 1010.9
20260506195016 12 0 0.0 0.0 0.00 0.00 0.00 54 1010.9
20260506194532 12 0 0.0 0.0 0.00 0.00 0.00 53 1010.8
20260506194015 13 0 0.0 0.0 0.00 0.00 0.00 52 1010.8
20260506193513 13 0 0.0 0.0 0.00 0.00 0.00 51 1010.8
20260506193029 13 0 0.0 0.0 0.00 0.00 0.00 49 1010.7
20260506192515 13 0 0.0 0.0 0.00 0.00 0.00 49 1010.7
20260506192014 14 0 0.0 0.0 0.00 0.00 0.00 48 1010.7
20260506191531 14 0 0.0 0.0 0.00 0.00 0.00 46 1010.8
20260506191015 15 0 0.0 0.0 0.00 0.00 0.00 45 1010.8
20260506190514 15 0 0.0 0.0 0.00 0.00 0.00 42 1010.7
20260506190036 15 0 0.0 0.0 0.00 0.00 0.00 41 1010.7
20260506185515 15 0 0.0 1.6 0.00 0.00 0.00 38 1010.7
20260506185015 15 0 0.0 1.6 0.00 0.00 0.00 37 1010.6
20260506184528 15 0 0.0 4.8 0.00 0.00 0.00 40 1010.7
20260506184015 15 0 0.0 4.8 0.00 0.00 0.00 38 1010.6
20260506183516 15 156 0.0 4.8 0.00 0.00 0.00 40 1010.7
20260506183030 16 0 0.0 3.2 0.00 0.00 0.00 41 1010.4
20260506182512 15 0 0.0 8.0 0.00 0.00 0.00 38 1010.5
20260506182021 15 0 1.6 8.0 0.00 0.00 0.00 41 1010.5
20260506181534 16 165 1.6 11.3 0.00 0.00 0.00 42 1010.5
20260506181013 16 0 0.0 11.3 0.00 0.00 0.00 39 1010.5
20260506180516 16 140 3.2 11.3 0.00 0.00 0.00 39 1010.5
20260506180030 16 150 4.8 9.7 0.00 0.00 0.00 39 1010.6
20260506175512 16 191 4.8 9.7 0.00 0.00 0.00 37 1010.4
20260506175015 16 0 3.2 11.3 0.00 0.00 0.00 38 1010.6
20260506174530 16 144 4.8 11.3 0.00 0.00 0.00 38 1010.6
20260506174014 16 184 3.2 9.7 0.00 0.00 0.00 38 1010.6
20260506173515 16 115 1.6 9.7 0.00 0.00 0.00 38 1010.7
20260506173037 16 0 0.0 11.3 0.00 0.00 0.00 39 1010.7
20260506172515 16 151 3.2 11.3 0.00 0.00 0.00 41 1010.7
20260506172013 17 164 3.2 11.3 0.00 0.00 0.00 38 1010.7
20260506171532 16 92 3.2 11.3 0.00 0.00 0.00 38 1010.7
20260506171013 17 146 1.6 11.3 0.00 0.00 0.00 41 1010.7
20260506170516 17 141 3.2 11.3 0.00 0.00 0.00 39 1010.7
20260506170032 17 360 1.6 9.7 0.00 0.00 0.00 39 1010.7
20260506165513 17 0 0.0 12.9 0.00 0.00 0.00 41 1010.8
20260506165014 17 117 3.2 12.9 0.00 0.00 0.00 40 1010.8
20260506164529 17 179 4.8 12.9 0.00 0.00 0.00 40 1010.9
20260506164013 17 0 1.6 12.9 0.00 0.00 0.00 39 1010.7
20260506163515 17 124 4.8 12.9 0.00 0.00 0.00 39 1010.8
20260506163050 17 118 4.8 11.3 0.00 0.00 0.00 39 1010.8
20260506162516 17 123 0.0 8.0 0.00 0.00 0.00 43 1010.8
20260506162017 17 0 4.8 11.3 0.00 0.00 0.00 38 1010.8
20260506161530 17 94 1.6 11.3 0.00 0.00 0.00 40 1010.8
20260506161015 17 0 4.8 11.3 0.00 0.00 0.00 41 1010.8
20260506160512 17 164 1.6 11.3 0.00 0.00 0.00 42 1010.9
20260506160030 17 136 4.8 11.3 0.00 0.00 0.00 44 1010.9
20260506155515 18 156 4.8 14.5 0.00 0.00 0.00 40 1010.7
20260506155015 18 170 3.2 14.5 0.00 0.00 0.00 40 1010.8
20260506154538 18 210 4.8 14.5 0.00 0.00 0.00 41 1010.8
20260506154013 18 206 6.4 12.9 0.00 0.00 0.00 41 1010.9
20260506153516 18 112 6.4 12.9 0.00 0.00 0.00 41 1011.1
20260506153032 18 157 6.4 11.3 0.00 0.00 0.00 42 1011.1
20260506152515 18 215 0.0 12.9 0.00 0.00 0.00 42 1011.2
20260506152016 18 224 1.6 12.9 0.00 0.00 0.00 43 1011.2
20260506151539 18 198 4.8 12.9 0.00 0.00 0.00 44 1011.2
20260506151016 17 175 1.6 14.5 0.00 0.00 0.00 46 1011.3
20260506150518 16 194 4.8 14.5 0.00 0.00 0.00 45 1011.2
20260506150032 16 156 3.2 12.9 0.00 0.00 0.00 44 1011.4
20260506145514 17 194 0.0 9.7 0.00 0.00 0.00 44 1011.5
20260506145016 18 192 3.2 9.7 0.00 0.00 0.00 42 1011.6
20260506144531 18 0 0.0 17.7 0.00 0.00 0.00 41 1011.6
20260506144015 18 0 3.2 17.7 0.00 0.00 0.00 39 1011.6
20260506143513 18 167 9.7 17.7 0.00 0.00 0.00 41 1011.7
20260506143031 18 0 3.2 14.5 0.00 0.00 0.00 38 1011.6
20260506142513 18 183 3.2 14.5 0.00 0.00 0.00 43 1011.7
20260506142019 18 150 1.6 12.9 0.00 0.00 0.00 42 1011.9
20260506141530 18 85 4.8 14.5 0.00 0.00 0.00 42 1011.7
20260506141020 18 0 6.4 14.5 0.00 0.00 0.00 45 1011.8
20260506140513 18 171 3.2 12.9 0.00 0.00 0.00 41 1011.8
20260506140034 18 0 3.2 14.5 0.00 0.00 0.00 44 1011.9
20260506135518 18 143 8.0 16.1 0.00 0.00 0.00 40 1012.0
20260506135020 18 74 8.0 16.1 0.00 0.00 0.00 41 1012.1
20260506134531 18 182 3.2 11.3 0.00 0.00 0.00 46 1012.0
20260506134017 18 0 3.2 11.3 0.00 0.00 0.00 41 1012.0
20260506133516 18 0 3.2 14.5 0.00 0.00 0.00 40 1012.2
20260506133029 18 182 4.8 14.5 0.00 0.00 0.00 44 1012.1
20260506132515 19 173 0.0 14.5 0.00 0.00 0.00 44 1012.2
20260506132012 19 171 3.2 14.5 0.00 0.00 0.00 43 1012.3
20260506131535 18 0 1.6 12.9 0.00 0.00 0.00 37 1012.4
20260506131015 19 192 4.8 12.9 0.00 0.00 0.00 43 1012.3
20260506130517 18 0 0.0 9.7 0.00 0.00 0.00 45 1012.4
20260506130030 18 11 0.0 9.7 0.00 0.00 0.00 42 1012.4
20260506125514 18 0 1.6 11.3 0.00 0.00 0.00 41 1012.6
20260506125013 18 172 4.8 11.3 0.00 0.00 0.00 46 1012.6
20260506124532 17 171 1.6 11.3 0.00 0.00 0.00 49 1012.7
20260506124014 17 88 1.6 8.0 0.00 0.00 0.00 44 1012.8
20260506123515 18 0 0.0 12.9 0.00 0.00 0.00 51 1012.8
20260506123032 18 149 1.6 12.9 0.00 0.00 0.00 44 1012.9
20260506122515 17 141 6.4 12.9 0.00 0.00 0.00 45 1013.0
20260506122013 16 153 0.0 9.7 0.00 0.00 0.00 46 1012.9
20260506121529 17 0 1.6 11.3 0.00 0.00 0.00 47 1013.1
20260506121015 18 255 3.2 11.3 0.00 0.00 0.00 47 1013.0
20260506120515 17 216 3.2 14.5 0.00 0.00 0.00 47 1013.1
20260506120028 17 249 4.8 14.5 0.00 0.00 0.00 51 1013.1
20260506115514 16 0 4.8 14.5 0.00 0.00 0.00 53 1013.2
20260506115015 16 0 0.0 8.0 0.00 0.00 0.00 49 1013.2
20260506114530 15 0 0.0 9.7 0.00 0.00 0.00 46 1013.3
20260506114014 15 132 3.2 9.7 0.00 0.00 0.00 52 1013.3
20260506113513 15 123 1.6 9.7 0.00 0.00 0.00 51 1013.3
20260506113030 16 0 0.0 8.0 0.00 0.00 0.00 49 1013.3
20260506112518 17 0 1.6 8.0 0.00 0.00 0.00 48 1013.5
20260506112014 16 0 1.6 9.7 0.00 0.00 0.00 51 1013.4
20260506111533 17 281 1.6 9.7 0.00 0.00 0.00 45 1013.4
20260506111013 16 333 3.2 6.4 0.00 0.00 0.00 49 1013.4
20260506110512 16 44 0.0 8.0 0.00 0.00 0.00 53 1013.5
20260506110031 16 23 0.0 8.0 0.00 0.00 0.00 47 1013.5
20260506105512 16 334 3.2 12.9 0.00 0.00 0.00 49 1013.5
20260506105016 16 0 3.2 12.9 0.00 0.00 0.00 50 1013.6
20260506104528 17 126 3.2 11.3 0.00 0.00 0.00 50 1013.6
20260506104016 17 324 1.6 8.0 0.00 0.00 0.00 48 1013.5
20260506103513 16 0 0.0 8.0 0.00 0.00 0.00 51 1013.6
20260506103028 17 0 3.2 8.0 0.00 0.00 0.00 51 1013.7
20260506102516 16 0 1.6 11.3 0.00 0.00 0.00 53 1013.7
20260506102015 16 157 3.2 11.3 0.00 0.00 0.00 49 1013.7
20260506101532 16 176 1.6 9.7 0.00 0.00 0.00 53 1013.8
20260506101013 15 0 1.6 8.0 0.00 0.00 0.00 53 1013.8
20260506100513 15 37 0.0 6.4 0.00 0.00 0.00 52 1013.8